Location: Street
(51.1247°N, 2.7429°W)
Time: 11:08:16
(UTC+01:00)

NANOSAT C BR1 - Pass Details

Date: 07 April 2023
Orbit: 573 x 587 km, 98.0° (Epoch: 29 May)

Event Time Altitude Azimuth Distance (km) Brightness Sun altitude
Rises 04:39:02 0° 9° (N) 2,808 ? -17.3°
Reaches altitude 10° 04:41:16 10° 3° (N) 1,901 ? -17.0°
Maximum altitude 04:45:10 43° 292° (WNW) 817 ? -16.5°
Enters shadow 04:46:29 32° 246° (WSW) 1,002 ? -16.4°
